Warning: Javascript must be enabled to use all the features on this page!


Page Loading - Please Wait...

Click to hideNews Bulletins

Peak Streamflow for the Nation

USGS 11173500 CALAVERAS C NR SUNOL CA

Alameda County, California
Hydrologic Unit Code 18050004
Latitude  37°30'07", Longitude 121°49'06" NAD83
Drainage area 98.8  square miles
Gage datum 475 feet above NGVD29
Output formats
Table
Graph
Tab-separated file
peakfq (watstore) format
Reselect output format
Water
Year
Date Gage
Height
(feet)
Stream-
flow
(cfs)
1899 1899-03-23   1,6201
1900 1900-01-03   1,7901
1901 1900-11-21   6,9801
1902 1902-02-22   1,2401
1903 1903-03-31   3,3201
1904 1904-03-11   1,1801
1905 1905-03-20   9971
1906 1906-01-14   3,3301
1907 1907-03-24   4,3901
1908 1908-01-15   5901
1911 1911-03-07   3,8301
1912 1912-03-12   6541
1913 1913-01-18   9771
1914 1914-01-22   2,7701
1915 1915-02-02   2,6201
1916 1916-01-04   2,7701,6
1917 1917-02-25   2,8201,6
1918 1917-10-15   96.01,6
1919 1919-02-28   8211,6
1920 1920-06-16   72.01,6
1921 1920-12-24   7811,6
1922 1922-02-11   1,6601,6
1923 1923-01-28   5331,6
1924 1923-10-01   63.01,6
1925 1925-06-17   1051,6
1926 1926-05-11   1221,6
1927 1927-06-20   1101,6
1928 1928-05-10   1121,6
1929 1929-05-02   1061,6
2003 2002-12-19 3.98 5.106
2004 2004-04-20 5.86 1036
2005 2005-03-08 7.68 4216
2006 2006-04-25 8.96 1,0706
2007 2007-02-26 3.80 0.646
2008 2008-04-25 4.85 48.06
2009 2009-03-03 3.95 2.606
2010 2010-04-12 3.92 2.806
2011 2011-03-28 8.95 1,0606
2012 2012-04-13 4.39 2.706
2013 2012-12-29 6.34 2086
2014 2013-11-20 4.43 2.206
2015 2014-12-12 4.91 30.06
2016 2016-03-19 7.83 5326
2017 2017-02-21 9.32 9056
2018 2018-03-22 4.362 3.306
2019 2019-02-26 6.95 3156
2020 2020-04-05 4.86 24.86
?
  Peak Gage-Height Qualification Codes.
?
  Peak Streamflow Qualification Codes.